Flag for USA

Past Weather in Pasadena, California, USA — Yesterday and Last 2 Weeks

Now
79 °F

Sunny.


Feels Like: 79 °F
Forecast: 91 / 65 °F
Wind: 6 mph from South

Location: Bob Hope Airport

Current Time: Jul 9, 2020 at 9:09:59 pm

Latest Report: Jul 9, 2020 at 7:53 pm


Visibility: 10 mi

Pressure: 29.84 "Hg

Humidity: 41%

Dew Point: 53 °F

Location of PasadenaLocation

Past Weather in Pasadena — Graph

°F

Pasadena Temperature Yesterday

Maximum temperature yesterday: 84 °F (at 1:53 pm)
Minimum temperature yesterday: 64 °F (at 5:53 am)
Average temperature yesterday: 73 °F

High & Low Weather Summary for the Past Weeks

 TemperatureHumidityPressure
High93 °F (Jul 5, 1:53 pm)87% (Jun 27, 4:53 am)29.98 "Hg (Jun 27, 4:53 am)
Low59 °F (Jun 30, 5:53 am)13% (Jul 3, 4:53 pm)29.73 "Hg (Jun 28, 5:53 pm)
Average71 °F59%29.85 "Hg
* Reported Jun 24 7:53 pm — Jul 9 7:53 pm, Pasadena. Weather by CustomWeather, © 2020

Note: Actual official high and low records may vary slightly from our data, if they occured in-between our weather recording intervals... More about our weather records

Pasadena Weather History for the Previous 24 Hours

Scroll right to see more
 ConditionsComfort  
Time TempWeatherWind HumidityBarometerVisibility
7:53 pm
Thu, Jul 9
79 °FSunny.6 mph41%29.84 "Hg10 mi
6:53 pm82 °FSunny.8 mph32%29.83 "Hg10 mi
5:53 pm84 °FSunny.8 mph31%29.83 "Hg10 mi
4:53 pm85 °FSunny.10 mph31%29.83 "Hg10 mi
3:53 pm85 °FSunny.13 mph34%29.83 "Hg10 mi
2:53 pm85 °FSunny.13 mph36%29.83 "Hg10 mi
1:53 pm86 °FSunny.9 mph37%29.83 "Hg10 mi
12:53 pm85 °FSunny.No wind32%29.83 "Hg10 mi
11:53 am80 °FSunny.10 mph45%29.85 "Hg10 mi
10:53 am77 °FSunny.7 mph48%29.86 "Hg10 mi
9:53 am73 °FSunny.7 mph57%29.87 "Hg10 mi
8:53 am68 °FSunny.7 mph68%29.87 "Hg9 mi
7:53 am65 °FSunny.3 mph76%29.86 "Hg8 mi
6:53 am63 °FSunny.No wind84%29.85 "Hg7 mi
5:53 am62 °FSunny.3 mph83%29.85 "Hg7 mi
5:06 am62 °FClear.3 mph83%29.88 "Hg9 mi
4:22 am63 °FPassing clouds.No wind81%29.88 "Hg10 mi
3:53 am64 °FPassing clouds.6 mph78%29.85 "Hg10 mi
3:41 am64 °FPassing clouds.6 mph78%29.89 "Hg10 mi
2:53 am65 °FClear.7 mph76%29.85 "Hg10 mi
1:53 am66 °FClear.6 mph73%29.85 "Hg10 mi
12:53 am67 °FMild.7 mph73%29.85 "Hg10 mi
11:53 pm
Wed, Jul 8
69 °FClear.8 mph68%29.85 "Hg10 mi
10:53 pm70 °FClear.6 mph66%29.84 "Hg10 mi
9:53 pm71 °FClear.No wind63%29.83 "Hg10 mi
Weather by CustomWeather, © 2020

See weather overview